Location: Azalea Creek
(37.1280°N, 119.2623°W)
Time: 11:18:26
(UTC+00:00)

SL-16 R/B - Pass Details

Date: 17 February 2020
Orbit: 843 x 847 km, 71.0° (Epoch: 08 April)

Event Time Altitude Azimuth Distance (km) Brightness Sun altitude
Exits shadow 11:30:03 24° 47° (NE) 1,686 4.1 -39.1°
Drops below altitude 10° 11:32:23 10° 35° (NE) 2,470 5.1 -38.6°
Sets 11:34:55 0° 29° (NNE) 3,408 5.9 -38.1°
